Regional Weather Roundup
Issued by NWS

Home | Current Version | Previous Version | Text Only | Print | Product List | Glossary On
Versions: 1 2 3 4 5 6 7 8 9 10 11 12 13 14 15 16 17 18 19 20 21 22 23 24 25 26 27 28 29 30 31 32 33 34 35 36 37 38 39 40 41 42 43 44 45 46 47 48 49 50
000
ASUS43 KFSD 241902
RWRSD

WEATHER ROUNDUP FOR SOUTH DAKOTA
NATIONAL WEATHER SERVICE SIOUX FALLS SD
200 PM CDT TUE MAY 24 2016

NOTE: "FAIR" INDICATES FEW OR NO CLOUDS BELOW 12,000 FEET WITH NO
SIGNIFICANT WEATHER AND/OR OBSTRUCTIONS TO VISIBILITY.


SDZ001>005-009-010-012>017-242000-
NORTHWEST AND NORTH CENTRAL SOUTH DAKOTA

CITY           SKY/WX    TMP DP  RH WIND       PRES   REMARKS
BUFFALO          N/A     71  40  32 E13       29.83F
FAITH            N/A     72  43  35 SE9       29.89F
MOBRIDGE       SUNNY     75  47  36 NW8       29.87S
$$

SDZ012>016-024>037-041>051-057-063-072>074-242000-
SOUTHWEST AND SOUTH CENTRAL SOUTH DAKOTA

CITY           SKY/WX    TMP DP  RH WIND       PRES   REMARKS
RAPID CTY ARPT MOSUNNY   70  43  37 SE10      29.90F
PIERRE         SUNNY     76  49  38 CALM      29.86S
CUSTER         PTSUNNY   60  31  33 S5        29.98S
ELLSWORTH AFB  CLOUDY    72  45  37 SE15      29.90F
PHILIP         SUNNY     75  50  41 SE8       29.87F
PINE RIDGE     SUNNY     78  43  28 S10G20    29.88F
WINNER         FAIR      81  44  27 VRB3      29.88S
$$

SDZ004>011-016>023-039-040-242000-
NORTHEAST SOUTH DAKOTA

CITY           SKY/WX    TMP DP  RH WIND       PRES   REMARKS
ABERDEEN       SUNNY     80  50  34 E8        29.85S
WATERTOWN      SUNNY     77  60  55 SW8       29.88R
BROOKINGS      SUNNY     79  57  46 VRB3      29.88S
SISSETON         N/A     81  53  37 VRB3      29.83F
$$

SDZ017-020-022-023-036>040-048>070-242000-
SOUTHEAST SOUTH DAKOTA

CITY           SKY/WX    TMP DP  RH WIND       PRES   REMARKS
SIOUX FALLS    MOSUNNY   81  53  37 VRB3      29.87S
HURON          SUNNY     80  54  40 CALM      29.85S
MITCHELL       SUNNY     83  49  30 W8        29.86S
YANKTON        SUNNY     81  57  44 CALM      29.86S
$$

ABBREVIATIONS USED IN REMARKS
   TC - TEMPERATURE IN CELSIUS
  WCI - WIND CHILL INDEX
   HX - HEAT INDEX
  VSB - VISIBILITY





USA.gov is the U.S. government's official web portal to all federal, state and local government web resources and services.